Livingston, MT

12:47 AM MST on December 15, 2017 (GMT -0700)
Mission

Weather History for KLVM - July, 2013

Change the Weather History Date:

Thursday, July 25, 2013

  Actual Average Record
Temperature  
Mean Temperature 76 °F 68 °F  
Max Temperature 90 °F 87 °F 97 °F (2016)
Min Temperature 61 °F 50 °F 39 °F (1948)
Degree Days  
Heating Degree Days 0 1  
Month to date heating degree days 44  
Since 1 June heating degree days 251  
Since 1 July heating degree days 44  
Cooling Degree Days 11 4  
Month to date cooling degree days 163 82  
Year to date cooling degree days 213 102  
Since 1 June cooling degree days 205 101  
Growing Degree Days 25 (Base 50)    
Moisture  
Dew Point 46 °F    
Average Humidity 40    
Maximum Humidity 65    
Minimum Humidity 15    
Precipitation  
Precipitation 0.00 in 0.04 in 0.58 in (2007)
Month to date precipitation 1.29 1.24  
Year to date precipitation 7.11 9.89  
Sea Level Pressure  
Sea Level Pressure 30.03 in    
Wind  
Wind Speed 15 mph (East)    
Max Wind Speed 29 mph    
Max Gust Speed 37 mph    
Visibility 10 miles    
Events      
T = Trace of Precipitation, MM = Missing Value Source: NWS Daily Summary

Daily Weather History Graph

Daily Weather History Graph

Search for Another Location

Airport or City:

Trip Planner

Search our weather history database for the weather conditions in past years. The results will help you decide how hot, cold, wet, or windy it might be!

Date:

Astronomy

Jul. 25, 2013 Rise Set
Actual Time 5:57 AM MDT 8:58 PM MDT
Civil Twilight 5:22 AM MDT 9:33 PM MDT
Nautical Twilight 4:36 AM MDT 10:18 PM MDT
Astronomical Twilight 3:42 AM MDT 11:12 PM MDT
Moon 10:24 PM MDT (7/25) 9:45 AM MDT (7/25)
Length of Visible Light 16h 11m
Length of Day
15h 00m
Waning Gibbous, 88% of the Moon is Illuminated
Jul 25
Waning Gibbous
Jul 29
Last Quarter
Aug 6
New
Aug 14
First Quarter
Aug 20
Full

Hourly Weather History & Observations

Time (MDT) Temp. Dew Point Humidity Pressure Visibility Wind Dir Wind Speed Gust Speed Precip Events Conditions
12:53 AM 72.0 °F 46.0 °F 40% 29.95 in 10.0 mi East 25.3 mph 38.0 mph N/A   Clear
1:53 AM 68.0 °F 48.9 °F 50% 30.01 in 10.0 mi ESE 21.9 mph 32.2 mph N/A   Clear
2:53 AM 66.0 °F 48.9 °F 54% 30.02 in 10.0 mi East 10.4 mph - N/A   Clear
3:53 AM 63.0 °F 50.0 °F 63% 30.03 in 10.0 mi ENE 12.7 mph - N/A   Clear
4:53 AM 63.0 °F 48.9 °F 60% 30.03 in 10.0 mi East 12.7 mph - N/A   Clear
5:53 AM 61.0 °F 48.9 °F 64% 30.05 in 10.0 mi East 15.0 mph - N/A   Clear
6:53 AM 62.1 °F 48.9 °F 62% 30.08 in 10.0 mi East 9.2 mph - N/A   Clear
7:53 AM 64.9 °F 48.9 °F 56% 30.09 in 10.0 mi East 10.4 mph - N/A   Clear
8:53 AM 68.0 °F 48.9 °F 50% 30.10 in 10.0 mi East 11.5 mph - N/A   Clear
9:53 AM 72.0 °F 48.9 °F 44% 30.09 in 10.0 mi ENE 15.0 mph - N/A   Clear
10:53 AM 75.9 °F 50.0 °F 40% 30.07 in 10.0 mi ENE 15.0 mph - N/A   Clear
11:53 AM 79.0 °F 46.0 °F 31% 30.05 in 10.0 mi ENE 16.1 mph 21.9 mph N/A   Clear
12:53 PM 81.0 °F 46.9 °F 30% 30.04 in 10.0 mi ENE 15.0 mph 23.0 mph N/A   Clear
1:53 PM 84.9 °F 46.9 °F 27% 30.02 in 10.0 mi ENE 16.1 mph 21.9 mph N/A   Clear
2:53 PM 84.9 °F 44.1 °F 24% 30.01 in 10.0 mi ENE 8.1 mph 20.7 mph N/A   Clear
3:53 PM 87.1 °F 39.0 °F 18% 30.00 in 10.0 mi Variable 6.9 mph - N/A   Clear
4:53 PM 89.1 °F 36.0 °F 15% 29.97 in 10.0 mi East 5.8 mph - N/A   Clear
5:53 PM 89.1 °F 36.0 °F 15% 29.97 in 10.0 mi ENE 10.4 mph - N/A   Clear
6:53 PM 87.1 °F 39.9 °F 19% 29.96 in 10.0 mi East 11.5 mph - N/A   Clear
7:53 PM 82.0 °F 45.0 °F 27% 29.98 in 10.0 mi ENE 19.6 mph - N/A   Clear
8:53 PM 75.9 °F 48.0 °F 37% 30.00 in 10.0 mi ENE 26.5 mph 32.2 mph N/A   Clear
9:53 PM 72.0 °F 48.9 °F 44% 30.04 in 10.0 mi East 21.9 mph 29.9 mph N/A   Clear
10:53 PM 70.0 °F 50.0 °F 49% 30.06 in 10.0 mi East 25.3 mph 34.5 mph N/A   Clear
11:53 PM 68.0 °F 50.0 °F 52% 30.08 in 10.0 mi East 21.9 mph 28.8 mph N/A   Clear